TimeEST,TemperatureF,Dew PointF,Humidity,Sea Level PressureIn,VisibilityMPH,Wind Direction,Wind SpeedMPH,Gust SpeedMPH,PrecipitationIn,Events,Conditions,WindDirDegrees,DateUTC
12:15 AM,41.0,33.8,76,29.90,7.0,Calm,Calm,-,N/A,,Clear,0,2013-12-22 05:15:00
12:35 AM,41.0,33.8,76,29.88,7.0,ENE,3.5,-,N/A,,Scattered Clouds,60,2013-12-22 05:35:00
12:55 AM,41.0,33.8,76,29.88,7.0,Calm,Calm,-,N/A,,Scattered Clouds,0,2013-12-22 05:55:00
1:15 AM,41.0,33.8,76,29.88,7.0,Calm,Calm,-,N/A,,Overcast,0,2013-12-22 06:15:00
1:35 AM,41.0,33.8,76,29.89,7.0,Calm,Calm,-,N/A,,Scattered Clouds,0,2013-12-22 06:35:00
1:55 AM,41.0,33.8,76,29.86,5.0,NNE,3.5,-,N/A,Rain,Rain,20,2013-12-22 06:55:00
2:15 AM,39.2,33.8,81,29.86,5.0,Calm,Calm,-,N/A,,Haze,0,2013-12-22 07:15:00
2:35 AM,46.4,42.8,87,29.85,5.0,SSW,12.7,-,N/A,,Haze,210,2013-12-22 07:35:00
2:55 AM,57.2,51.8,82,29.83,10.0,South,10.4,17.3,N/A,,Mostly Cloudy,180,2013-12-22 07:55:00
3:15 AM,59.0,53.6,82,29.84,10.0,SSW,15.0,18.4,N/A,,Mostly Cloudy,200,2013-12-22 08:15:00
3:35 AM,57.2,51.8,82,29.84,5.0,SSW,9.2,-,N/A,,Haze,210,2013-12-22 08:35:00
3:55 AM,59.0,53.6,82,29.82,10.0,SSW,5.8,-,N/A,,Overcast,210,2013-12-22 08:55:00
4:15 AM,59.0,53.6,82,29.82,10.0,SSW,10.4,-,N/A,,Overcast,200,2013-12-22 09:15:00
4:35 AM,59.0,53.6,82,29.81,10.0,SSW,11.5,-,N/A,,Overcast,200,2013-12-22 09:35:00
4:55 AM,60.8,53.6,77,29.79,10.0,South,15.0,-,N/A,Rain,Light Rain,190,2013-12-22 09:55:00
5:15 AM,60.8,55.4,82,29.79,10.0,South,12.7,23.0,N/A,,Mostly Cloudy,190,2013-12-22 10:15:00
5:35 AM,60.8,53.6,77,29.80,10.0,SSW,11.5,21.9,N/A,,Overcast,200,2013-12-22 10:35:00
5:55 AM,60.8,53.6,77,29.80,10.0,SSW,11.5,-,N/A,,Overcast,210,2013-12-22 10:55:00
6:15 AM,60.8,55.4,82,29.81,10.0,SW,10.4,-,N/A,,Overcast,220,2013-12-22 11:15:00
6:35 AM,60.8,55.4,82,29.82,10.0,SSW,11.5,-,N/A,,Overcast,210,2013-12-22 11:35:00
6:55 AM,60.8,55.4,82,29.82,10.0,SSW,15.0,-,N/A,,Overcast,200,2013-12-22 11:55:00
7:15 AM,62.6,55.4,77,29.83,10.0,SSW,12.7,19.6,N/A,,Overcast,210,2013-12-22 12:15:00
7:35 AM,64.4,55.4,73,29.84,10.0,SW,12.7,21.9,N/A,,Overcast,230,2013-12-22 12:35:00
7:55 AM,64.4,55.4,73,29.87,7.0,West,10.4,18.4,N/A,Rain,Light Rain,280,2013-12-22 12:55:00
8:15 AM,60.8,55.4,82,29.87,10.0,SW,8.1,-,N/A,,Overcast,220,2013-12-22 13:15:00
8:35 AM,60.8,55.4,82,29.88,10.0,SSW,8.1,-,N/A,,Overcast,200,2013-12-22 13:35:00
8:55 AM,62.6,55.4,77,29.89,10.0,SSW,10.4,-,N/A,,Overcast,210,2013-12-22 13:55:00
9:15 AM,62.6,55.4,77,29.91,10.0,SSW,9.2,-,N/A,,Overcast,210,2013-12-22 14:15:00
9:35 AM,62.6,55.4,77,29.92,10.0,SSW,8.1,-,N/A,,Overcast,210,2013-12-22 14:35:00
9:55 AM,60.8,55.4,82,29.94,10.0,SW,8.1,-,N/A,,Overcast,220,2013-12-22 14:55:00
10:15 AM,62.6,55.4,77,29.95,10.0,SSW,8.1,-,N/A,Rain,Light Rain,210,2013-12-22 15:15:00
10:35 AM,62.6,55.4,77,29.96,10.0,SW,6.9,-,N/A,,Overcast,220,2013-12-22 15:35:00
10:55 AM,60.8,55.4,82,29.96,10.0,WSW,4.6,-,N/A,Rain,Light Rain,240,2013-12-22 15:55:00
11:15 AM,60.8,55.4,82,29.95,10.0,SSW,9.2,-,N/A,Rain,Light Rain,210,2013-12-22 16:15:00
11:35 AM,62.6,55.4,77,29.94,10.0,SSW,10.4,-,N/A,,Overcast,200,2013-12-22 16:35:00
11:55 AM,64.4,55.4,73,29.92,10.0,South,10.4,-,N/A,,Mostly Cloudy,190,2013-12-22 16:55:00
12:15 PM,64.4,55.4,73,29.90,10.0,South,8.1,-,N/A,,Mostly Cloudy,190,2013-12-22 17:15:00
12:35 PM,64.4,55.4,73,29.88,10.0,South,10.4,-,N/A,,Mostly Cloudy,180,2013-12-22 17:35:00
12:55 PM,64.4,53.6,68,29.86,10.0,South,8.1,-,N/A,,Mostly Cloudy,190,2013-12-22 17:55:00
1:15 PM,64.4,53.6,68,29.84,10.0,South,12.7,19.6,N/A,,Overcast,170,2013-12-22 18:15:00
1:35 PM,64.4,55.4,73,29.85,10.0,South,10.4,16.1,N/A,,Overcast,190,2013-12-22 18:35:00
1:55 PM,64.4,55.4,73,29.85,10.0,South,13.8,21.9,N/A,Rain,Light Rain,190,2013-12-22 18:55:00
2:15 PM,64.4,55.4,73,29.84,10.0,South,15.0,18.4,N/A,Rain,Light Rain,180,2013-12-22 19:15:00
2:35 PM,64.4,55.4,73,29.85,10.0,South,13.8,20.7,N/A,Rain,Light Rain,190,2013-12-22 19:35:00
2:55 PM,64.4,53.6,68,29.85,10.0,South,15.0,19.6,N/A,Rain,Light Rain,190,2013-12-22 19:55:00
3:15 PM,62.6,53.6,72,29.86,10.0,SW,10.4,16.1,N/A,Rain,Light Rain,230,2013-12-22 20:15:00
3:35 PM,62.6,53.6,72,29.89,10.0,SSW,15.0,-,N/A,,Mostly Cloudy,210,2013-12-22 20:35:00
3:55 PM,62.6,53.6,72,29.88,10.0,South,15.0,19.6,N/A,Rain,Light Rain,190,2013-12-22 20:55:00
4:15 PM,62.6,53.6,72,29.85,10.0,South,13.8,19.6,N/A,Rain,Light Rain,170,2013-12-22 21:15:00
4:35 PM,62.6,53.6,72,29.91,10.0,WSW,10.4,20.7,N/A,Rain,Light Rain,250,2013-12-22 21:35:00
4:55 PM,62.6,53.6,72,29.93,10.0,SW,10.4,19.6,N/A,,Scattered Clouds,230,2013-12-22 21:55:00
5:15 PM,60.8,53.6,77,29.91,10.0,SSW,9.2,-,N/A,,Light Drizzle,210,2013-12-22 22:15:00
5:35 PM,60.8,53.6,77,29.92,10.0,SW,8.1,-,N/A,,Clear,220,2013-12-22 22:35:00
5:55 PM,60.8,51.8,72,29.92,10.0,SW,5.8,-,N/A,,Clear,220,2013-12-22 22:55:00
6:15 PM,59.0,51.8,77,29.91,10.0,SSW,4.6,-,N/A,,Clear,210,2013-12-22 23:15:00
6:35 PM,59.0,51.8,77,29.93,10.0,Calm,Calm,-,N/A,,Clear,0,2013-12-22 23:35:00
6:55 PM,59.0,51.8,77,29.94,10.0,Calm,Calm,-,N/A,,Clear,0,2013-12-22 23:55:00
7:15 PM,59.0,51.8,77,29.94,10.0,SW,4.6,-,N/A,,Clear,220,2013-12-23 00:15:00
7:35 PM,59.0,51.8,77,29.94,10.0,South,6.9,-,N/A,,Clear,170,2013-12-23 00:35:00
7:55 PM,59.0,51.8,77,29.94,10.0,Calm,Calm,-,N/A,,Clear,0,2013-12-23 00:55:00
8:15 PM,59.0,51.8,77,29.96,10.0,SSW,8.1,-,N/A,,Scattered Clouds,210,2013-12-23 01:15:00
8:35 PM,59.0,51.8,77,29.96,10.0,SSW,5.8,-,N/A,,Scattered Clouds,200,2013-12-23 01:35:00
8:55 PM,59.0,51.8,77,29.95,10.0,South,6.9,-,N/A,,Clear,170,2013-12-23 01:55:00
9:15 PM,59.0,51.8,77,29.95,10.0,South,8.1,-,N/A,,Clear,180,2013-12-23 02:15:00
9:35 PM,59.0,51.8,77,29.97,10.0,SSW,5.8,-,N/A,,Clear,200,2013-12-23 02:35:00
9:55 PM,59.0,51.8,77,29.96,10.0,South,6.9,-,N/A,,Clear,190,2013-12-23 02:55:00
10:15 PM,59.0,51.8,77,29.95,10.0,South,4.6,-,N/A,,Clear,190,2013-12-23 03:15:00
10:35 PM,57.2,51.8,82,29.96,10.0,SW,4.6,-,N/A,,Clear,220,2013-12-23 03:35:00
10:55 PM,57.2,51.8,82,29.96,10.0,SW,4.6,-,N/A,,Clear,220,2013-12-23 03:55:00
11:15 PM,57.2,51.8,82,29.96,10.0,South,4.6,-,N/A,,Scattered Clouds,190,2013-12-23 04:15:00
11:35 PM,57.2,51.8,82,29.96,10.0,SSW,4.6,-,N/A,,Clear,200,2013-12-23 04:35:00
11:55 PM,57.2,51.8,82,29.95,10.0,SW,4.6,-,N/A,,Clear,220,2013-12-23 04:55:00